Temp
38 31 26 29 32 33 32 26 24 28 35 28 28 30 30 30 33 29 29 29 30 32 37 41 43 47 51 52 54 55 54 54 52 50 50 54 56 61 62 63 64 64 63 63
31 26 35 38 36 31 30 24 22 28 34 31 26 26 26 31 30 30 28 27 28 30 33 37 41 43 46 49 50 53 54 54 53 52 53 57 57 61 62 62 62 64 64 63
25 33 40 36 31 27 27 23 22 22 28 30 25 21 23 30 32 30 30 29 29 29 31 37 42 40 44 47 48 53 54 54 54 54 55 57 58 60 59 60 61 62 62 62
29 38 35 31 28 29 17 29 27 25 20 13 25 8 20 25 25 24 25 25 26 28 32 37 40 41 43 47 48 51 52 53 55 55 55 56 56 57 58 60 60 61 62 61
29 31 30 20 28 30 18 28 27 24 20 20 22 14 15 22 18 18 22 23 25 28 30 34 37 41 46 48 46 47 49 50 51 53 56 56 58 58 59 59 56 52 49 52
31 39 33 30 34 31 30 23 29 27 19 9 19 17 12 12 14 17 20 22 24 26 29 34 37 40 43 45 48 49 46 46 47 49 50 52 52 51 48 48 44 43 44 44
27 31 34 34 24 29 24 12 -0 5 6 12 24 15 12 17 17 16 16 19 22 25 27 31 32 34 37 40 41 44 44 42 43 44 44 45 45 45 42 42 41 40 39 39
10 14 26 30 20 14 20 9 -3 -6 3 9 24 10 13 19 19 18 18 20 22 24 27 28 30 31 33 35 35 37 38 39 40 40 41 41 41 40 39 39 37 37 36 36
10 13 31 29 28 24 17 12 23 4 10 8 15 19 21 24 16 16 14 19 19 22 24 26 28 28 30 32 33 33 34 35 37 37 37 37 38 37 35 35 35 34 34 35
19 12 29 31 27 28 23 25 11 12 -5 -6 7 7 4 9 8 11 10 14 17 20 23 25 26 27 29 30 31 32 32 31 32 33 34 33 33 32 32 32 30 30 30 31
25 16 21 26 10 7 17 12 16 18 13 -0 -2 -2 9 8 9 7 10 15 16 18 20 23 25 26 26 28 28 28 29 29 30 30 30 30 29 30 30 29 29 28 29 29
26 16 9 14 18 24 23 8 13 8 10 14 11 9 16 12 11 11 12 16 18 20 20 22 23 24 24 25 26 26 27 27 28 31 31 30 30 29 28 28 28 28 27 28
23 20 8 16 22 26 13 19 18 17 15 11 9 8 17 14 11 12 11 14 16 19 19 21 21 22 23 24 24 25 26 26 27 30 30 29 29 29 29 29 29 30 29 28
30 18 12 10 16 9 11 16 18 15 7 4 7 6 9 10 8 10 11 14 15 16 17 19 20 21 22 23 23 24 25 27 26 27 27 27 28 28 28 29 28 28 29 28
24 17 9 9 10 10 8 11 12 5 7 5 10 6 6 8 8 9 11 13 13 14 15 17 18 20 21 22 23 24 24 25 27 27 28 27 28 28 27 27 27 27 27 27
25 13 15 11 9 7 9 16 12 12 5 7 9 5 11 11 11 10 10 11 11 13 15 16 18 19 20 21 22 23 26 27 28 26 25 26 26 26 26 25 25 25 24 24
18 13 8 6 12 15 14 11 4 3 5 9 4 11 12 9 8 8 9 11 11 12 14 15 17 18 20 21 24 22 23 26 25 24 24 24 24 23 23 23 23 21 21 23
18 12 11 10 8 6 19 8 8 8 6 4 5 11 8 8 10 9 11 11 12 13 14 15 16 18 20 22 22 23 23 22 22 21 21 22 22 21 21 21 20 19 20 20
23 16 12 10 -1 16 23 18 14 13 13 9 9 5 9 11 14 11 14 12 13 14 13 11 10 10 17 16 20 21 19 20 19 17 17 18 19 18 19 18 18 19 19 19
27 21 15 19 10 7 18 15 20 15 17 14 12 7 8 20 12 9 5 10 11 8 9 12 14 17 17 16 20 20 18 18 17 17 18 18 19 18 17 18 18 20 20 20
15 10 10 21 6 17 16 22 28 18 23 15 14 14 16 14 10 9 8 8 8 11 13 13 13 12 13 17 18 16 15 14 17 18 19 19 19 18 18 18 19 18 18 18
17 12 10 9 9 16 21 24 22 23 10 13 10 13 10 4 1 4 6 6 10 9 14 16 14 14 15 18 17 15 13 15 15 15 15 15 15 19 17 15 16 16 14 14
19 25 23 24 23 18 22 18 14 13 16 13 17 13 15 12 11 13 13 14 16 17 17 17 15 14 14 15 15 13 12 13 11 10 9 11 13 16 17 14 13 14 13 12
26 27 22 24 22 17 20 15 15 19 22 24 25 21 22 20 18 16 16 16 17 17 16 15 13 11 10 11 14 13 13 11 4 7 9 11 11 13 13 16 15 14 12 10
27 26 24 23 23 20 22 24 24 22 22 25 24 23 24 22 18 18 19 18 17 17 15 13 11 10 9 9 8 6 9 6 10 9 10 10 10 9 9 13 11 14 15 15
27 27 27 28 30 32 32 30 28 26 25 25 24 22 23 24 20 20 18 18 16 14 12 11 9 8 6 4 2 1 -1 4 6 9 9 8 8 6 7 6 6 19 20 21
MSLP
1016.81 1017.50 1018.19 1018.20 1018.23 1018.10 1017.75 1017.65 1017.07 1016.31 1015.95 1016.29 1016.25 1016.25 1016.73 1017.09 1016.85 1016.89 1017.08 1016.94 1016.33 1015.62 1014.81 1013.66 1012.38 1011.30 1010.27 1009.33 1008.49 1008.19 1007.99 1007.90 1008.04 1008.35 1008.32 1007.87 1007.92 1007.18 1006.83 1006.94 1006.41 1006.17 1007.20 1008.58
1017.93 1018.14 1018.28 1018.32 1018.21 1018.16 1018.10 1017.85 1017.15 1016.44 1016.32 1016.30 1016.35 1017.41 1017.93 1017.94 1018.44 1018.57 1018.70 1018.48 1017.76 1016.32 1014.55 1013.16 1011.87 1011.30 1010.43 1009.72 1009.11 1008.35 1007.82 1007.63 1007.64 1007.93 1007.61 1007.24 1007.17 1006.88 1006.65 1006.76 1006.51 1006.94 1007.60 1007.88
1019.27 1018.56 1018.18 1018.14 1017.94 1017.86 1018.21 1017.89 1017.63 1017.35 1016.62 1016.10 1016.33 1018.08 1018.38 1018.63 1019.06 1019.60 1019.45 1019.59 1018.82 1017.95 1016.08 1013.69 1011.60 1011.03 1010.37 1009.69 1008.89 1008.40 1007.79 1007.27 1007.16 1007.29 1007.04 1006.87 1006.80 1006.75 1006.39 1006.25 1006.86 1006.78 1007.23 1008.23
1019.36 1018.79 1018.40 1018.28 1018.74 1018.68 1017.97 1018.13 1017.90 1017.19 1017.34 1017.22 1017.15 1018.74 1019.31 1019.77 1020.22 1020.35 1020.32 1020.06 1019.52 1018.34 1016.54 1014.50 1012.32 1011.06 1010.18 1009.41 1008.88 1008.43 1007.86 1007.23 1006.92 1006.58 1006.53 1006.47 1006.58 1006.68 1006.58 1006.69 1006.85 1007.08 1007.91 1008.79
1019.67 1019.08 1018.42 1018.89 1019.16 1018.87 1018.70 1018.10 1017.85 1017.60 1017.60 1017.82 1017.85 1019.13 1021.48 1021.17 1021.10 1021.27 1021.14 1021.04 1020.28 1019.04 1017.48 1015.30 1013.38 1011.62 1009.64 1009.28 1009.09 1008.88 1008.38 1007.57 1007.30 1006.34 1005.88 1006.31 1006.55 1006.88 1006.84 1006.96 1007.70 1008.82 1008.93 1009.66
1020.20 1019.16 1019.10 1019.57 1019.23 1018.93 1019.03 1018.07 1017.74 1018.06 1018.26 1018.85 1019.21 1019.98 1022.39 1023.19 1024.30 1023.73 1023.05 1022.12 1021.16 1019.68 1018.00 1016.10 1014.65 1013.18 1011.42 1010.36 1009.70 1009.54 1009.16 1008.55 1008.20 1007.48 1006.82 1006.93 1007.25 1007.72 1007.98 1008.31 1009.00 1009.98 1010.91 1011.57
1021.59 1020.09 1019.73 1019.91 1019.51 1019.34 1019.85 1020.05 1020.39 1020.09 1020.21 1020.39 1019.93 1020.91 1023.55 1024.85 1025.49 1025.57 1024.66 1023.31 1022.03 1020.67 1018.98 1017.37 1016.19 1014.93 1013.70 1012.54 1011.76 1010.89 1010.21 1009.71 1009.32 1008.99 1008.32 1008.54 1008.79 1009.54 1009.51 1010.16 1010.80 1011.17 1012.28 1012.75
1023.94 1021.63 1021.03 1021.12 1021.92 1022.69 1022.47 1022.71 1023.31 1022.55 1021.87 1021.26 1020.75 1022.36 1023.88 1025.15 1026.12 1026.19 1025.60 1024.54 1023.21 1021.61 1019.90 1018.84 1017.90 1016.78 1015.53 1014.54 1013.67 1012.68 1011.82 1011.28 1010.83 1010.54 1010.34 1009.99 1010.51 1011.02 1011.54 1012.04 1012.29 1012.87 1013.54 1014.96
1025.13 1023.78 1021.98 1021.85 1022.46 1023.22 1023.29 1023.82 1023.83 1024.25 1023.40 1022.69 1022.11 1022.91 1023.93 1024.81 1026.52 1026.47 1025.82 1024.66 1023.32 1021.95 1021.07 1020.25 1019.22 1018.27 1017.21 1016.05 1015.20 1014.54 1013.61 1013.33 1012.84 1012.54 1012.07 1011.44 1012.28 1012.55 1013.14 1013.92 1014.04 1014.22 1015.32 1016.45
1025.42 1025.06 1022.90 1022.20 1022.91 1023.40 1024.01 1024.45 1024.32 1024.52 1024.59 1024.33 1023.83 1024.95 1026.56 1026.23 1026.48 1026.73 1026.24 1025.15 1024.32 1023.67 1022.56 1021.37 1020.38 1019.52 1018.48 1017.64 1016.91 1016.14 1015.55 1015.42 1015.15 1014.78 1013.42 1013.38 1013.85 1014.29 1015.09 1015.50 1015.89 1016.40 1017.00 1017.57
1025.09 1025.92 1023.96 1023.37 1024.34 1024.90 1024.76 1025.13 1025.27 1025.17 1025.10 1025.71 1026.14 1027.28 1028.04 1028.33 1028.75 1028.63 1027.41 1026.09 1025.70 1024.50 1023.53 1022.31 1021.54 1020.53 1019.67 1018.79 1018.31 1017.88 1017.25 1017.37 1017.39 1016.45 1015.04 1014.75 1015.15 1015.95 1016.73 1016.72 1017.99 1018.19 1018.53 1019.17
1024.91 1025.88 1025.99 1024.52 1023.99 1024.55 1024.93 1025.98 1026.60 1026.45 1025.47 1026.60 1026.98 1027.87 1028.28 1028.84 1029.45 1029.05 1028.14 1027.26 1026.58 1025.81 1024.40 1023.35 1022.43 1021.67 1020.73 1020.25 1019.90 1018.97 1018.80 1019.33 1019.19 1017.75 1016.19 1015.88 1016.63 1017.91 1018.25 1018.93 1019.57 1020.01 1020.20 1021.36
1024.98 1025.58 1026.43 1025.20 1024.62 1024.73 1025.19 1026.32 1026.95 1026.81 1026.13 1027.37 1027.76 1028.26 1028.38 1028.93 1029.70 1029.51 1029.19 1028.10 1026.90 1026.59 1024.76 1024.12 1022.99 1022.53 1022.27 1021.53 1020.64 1020.82 1020.71 1020.65 1019.84 1019.17 1016.43 1017.38 1018.48 1019.40 1020.13 1020.76 1020.87 1021.64 1021.81 1022.65
1024.99 1026.05 1027.14 1028.04 1027.37 1026.95 1026.22 1026.83 1027.73 1027.40 1027.89 1027.70 1028.84 1029.39 1029.51 1029.54 1029.75 1029.75 1029.64 1028.78 1027.07 1027.09 1026.20 1025.53 1024.05 1023.46 1022.88 1022.58 1022.64 1022.00 1022.34 1021.46 1021.42 1020.27 1019.23 1019.70 1020.65 1021.27 1021.78 1022.45 1022.59 1022.83 1023.38 1024.20
1025.42 1026.62 1027.41 1027.76 1027.49 1027.41 1027.38 1026.74 1029.10 1029.06 1029.50 1029.19 1028.47 1030.61 1031.27 1030.93 1030.54 1030.67 1030.03 1029.57 1028.60 1027.36 1026.53 1026.16 1025.52 1024.60 1024.24 1023.74 1023.54 1024.12 1024.41 1023.89 1022.72 1020.82 1021.40 1021.88 1022.76 1023.04 1023.62 1024.30 1024.15 1024.95 1025.19 1025.96
1025.85 1026.88 1027.70 1028.11 1027.89 1028.03 1028.05 1026.81 1028.37 1030.23 1030.17 1029.78 1029.59 1030.25 1031.14 1031.52 1031.33 1031.02 1030.64 1030.25 1029.14 1028.28 1027.92 1027.16 1026.70 1026.16 1025.43 1026.18 1026.50 1026.35 1025.99 1025.53 1024.48 1023.23 1023.28 1023.95 1024.27 1024.42 1025.36 1025.79 1025.85 1026.15 1026.48 1026.71
1026.47 1027.06 1027.94 1028.59 1028.09 1028.04 1028.15 1027.14 1027.87 1030.67 1030.83 1030.70 1030.59 1030.53 1030.77 1031.42 1031.64 1031.75 1031.44 1030.87 1030.52 1029.68 1029.10 1028.55 1027.77 1027.92 1028.61 1028.45 1028.29 1027.72 1026.87 1025.74 1024.93 1024.79 1025.44 1025.84 1026.16 1026.66 1027.21 1027.20 1027.07 1027.30 1027.86 1028.68
1026.89 1027.41 1027.66 1028.47 1028.44 1027.66 1026.53 1026.47 1027.08 1028.91 1030.93 1030.20 1030.87 1030.60 1030.49 1031.33 1031.56 1031.85 1031.77 1031.54 1031.21 1030.69 1030.02 1029.78 1030.01 1029.84 1029.39 1028.97 1028.44 1027.89 1027.32 1026.97 1026.79 1027.05 1027.58 1027.92 1028.26 1028.40 1028.59 1028.33 1029.08 1029.84 1029.85 1029.94
1026.64 1027.15 1027.60 1028.06 1028.14 1026.62 1025.77 1026.25 1026.37 1027.57 1029.36 1029.86 1029.88 1030.58 1030.62 1030.73 1031.34 1031.87 1032.01 1031.88 1031.85 1031.80 1031.44 1031.16 1030.84 1030.63 1030.23 1029.78 1029.49 1029.01 1028.61 1028.67 1028.83 1029.13 1029.72 1030.05 1029.89 1030.03 1030.06 1030.36 1030.60 1030.59 1030.56 1030.54
1026.62 1026.84 1027.27 1027.51 1027.29 1025.97 1024.59 1024.40 1024.61 1025.47 1026.79 1028.25 1028.95 1029.55 1030.24 1030.74 1031.32 1031.93 1031.98 1032.19 1031.66 1031.52 1031.88 1031.94 1031.58 1031.41 1031.18 1031.01 1030.55 1030.05 1030.08 1030.18 1030.54 1030.94 1031.09 1031.09 1031.18 1031.12 1031.23 1031.28 1031.47 1031.86 1031.57 1031.68
1026.67 1026.67 1026.73 1026.43 1026.21 1024.18 1023.39 1023.87 1024.51 1025.33 1025.69 1026.07 1028.29 1029.22 1029.65 1030.37 1030.53 1031.29 1031.63 1031.85 1032.03 1031.86 1031.64 1031.70 1031.96 1032.11 1032.03 1031.74 1031.35 1030.94 1031.30 1031.66 1032.08 1032.12 1032.21 1032.47 1032.55 1032.25 1032.46 1032.38 1032.55 1032.75 1032.79 1032.89
1024.69 1025.19 1025.46 1025.31 1025.03 1023.46 1022.99 1024.31 1024.55 1023.81 1024.40 1025.10 1026.69 1028.00 1029.41 1029.83 1030.25 1030.63 1031.73 1031.86 1031.62 1031.83 1032.24 1032.62 1032.86 1032.91 1032.70 1032.38 1032.21 1032.45 1032.67 1033.29 1033.25 1033.37 1033.46 1033.52 1033.43 1033.38 1033.21 1033.51 1033.70 1033.35 1033.34 1033.74
1023.30 1022.15 1022.34 1022.43 1021.64 1021.48 1021.79 1022.35 1022.62 1023.18 1023.37 1024.68 1025.44 1026.61 1027.70 1029.14 1029.97 1030.31 1030.88 1031.49 1032.05 1032.32 1032.57 1032.92 1033.26 1033.56 1033.61 1033.60 1033.52 1033.56 1034.22 1034.24 1034.31 1034.36 1034.29 1034.31 1034.13 1034.22 1034.47 1034.03 1033.91 1033.89 1033.94 1033.80
1021.93 1021.25 1021.37 1021.21 1020.52 1021.00 1021.58 1022.00 1022.18 1022.58 1022.85 1023.39 1024.10 1025.18 1026.17 1027.27 1028.67 1029.54 1030.28 1030.90 1031.46 1032.27 1033.05 1033.54 1033.98 1034.38 1034.54 1034.56 1034.61 1034.85 1034.90 1035.03 1035.00 1035.03 1035.09 1035.03 1034.76 1034.63 1034.61 1034.64 1034.62 1034.77 1034.82 1034.80
1020.66 1020.92 1020.35 1020.02 1019.56 1020.28 1020.37 1020.67 1020.95 1021.96 1022.58 1023.21 1023.94 1024.58 1025.30 1026.42 1027.92 1028.90 1029.87 1030.78 1031.49 1032.05 1032.67 1033.31 1034.01 1034.54 1035.01 1035.20 1035.42 1035.46 1035.51 1035.55 1035.45 1035.30 1035.34 1035.46 1035.63 1035.74 1035.72 1035.49 1035.11 1035.04 1034.97 1035.19
1019.15 1018.30 1018.52 1017.43 1016.19 1016.80 1017.20 1018.04 1019.65 1020.88 1021.68 1022.52 1023.40 1024.77 1025.80 1026.41 1027.52 1028.64 1029.74 1030.64 1031.51 1032.43 1033.19 1033.92 1034.50 1034.99 1035.45 1035.80 1035.96 1035.97 1036.04 1035.86 1035.53 1035.78 1035.97 1036.11 1036.12 1036.10 1036.11 1036.13 1036.16 1035.45 1035.42 1035.31
Wind_Speed
3 6 4 7 6 10 15 13 19 19 14 10 9 9 14 10 16 17 18 19 20 22 21 19 18 17 15 11 6 6 5 8 3 2 4 3 3 4 3 3 9 14 11 9
6 2 5 9 10 13 13 19 16 11 18 17 5 10 11 14 16 14 16 18 20 24 27 25 22 15 14 11 9 8 7 7 5 3 4 3 3 3 3 4 7 8 13 15
1 3 6 9 14 18 15 9 14 21 18 6 3 4 13 15 15 17 18 19 20 21 24 25 20 12 13 11 8 11 11 7 6 5 4 2 2 0 2 5 5 8 12 12
4 6 7 9 10 17 12 8 19 19 7 2 2 3 16 16 15 19 20 21 22 23 24 21 19 13 12 12 7 10 10 6 5 6 6 7 4 3 2 7 5 7 12 10
5 6 9 5 10 13 9 20 14 11 2 1 3 5 7 13 18 25 24 23 23 22 22 21 21 21 14 11 7 6 6 9 11 9 6 5 3 3 3 5 9 12 13 12
6 6 3 4 14 5 18 7 3 2 3 6 9 4 6 10 14 18 19 21 22 23 23 21 21 21 20 16 10 9 9 12 12 10 10 10 9 6 8 9 10 9 9 8
7 5 3 4 9 4 18 8 5 8 7 4 3 9 1 6 9 11 17 19 20 19 19 20 21 20 20 19 17 12 13 14 13 13 15 14 15 11 14 11 10 12 9 11
5 11 7 8 5 5 7 5 4 5 1 4 6 3 3 7 7 11 13 14 16 17 18 19 19 18 19 19 19 17 16 14 14 14 14 16 16 9 12 13 12 13 13 12
5 8 3 5 3 4 8 6 3 1 3 2 3 1 11 17 13 14 15 18 18 19 18 18 17 17 16 16 19 19 18 16 14 14 13 19 16 17 16 17 15 14 15 13
4 5 4 2 7 4 5 3 4 3 5 5 3 2 4 21 22 18 18 17 16 17 17 17 16 16 15 15 15 18 18 16 13 12 15 17 19 20 18 18 21 20 18 18
3 4 9 5 3 5 5 4 3 3 3 2 3 4 3 9 11 13 15 16 15 16 16 15 14 14 15 14 15 16 17 15 12 11 18 21 21 21 19 20 18 19 20 19
2 4 4 8 6 6 5 4 1 2 3 2 1 2 3 6 8 10 14 16 14 14 13 13 14 14 15 15 15 16 16 11 8 12 20 24 24 21 21 20 20 19 21 18
3 1 5 11 4 1 2 4 2 3 3 3 1 3 3 8 9 10 11 12 12 14 14 13 14 14 14 15 17 15 14 10 10 12 22 24 23 21 21 20 21 20 21 19
2 1 6 6 10 1 9 5 7 3 3 5 4 5 13 15 13 12 13 13 13 11 12 13 14 15 16 16 17 15 12 10 10 15 22 23 22 21 20 18 19 20 19 19
4 1 2 5 7 0 4 6 7 4 2 1 8 3 3 7 11 10 10 9 11 13 15 15 15 15 16 16 16 11 10 9 12 20 20 22 20 20 20 19 20 19 19 17
2 1 2 6 3 2 5 10 2 5 2 2 6 2 4 0 6 8 10 9 11 12 14 15 15 16 18 15 9 9 11 11 13 19 21 19 18 19 18 17 17 17 17 17
2 2 3 5 2 3 7 7 2 6 3 4 4 5 1 4 4 5 7 8 8 10 11 13 16 15 10 8 9 9 10 13 17 19 18 17 17 17 15 15 16 17 16 13
1 2 3 4 4 6 8 4 3 6 7 6 2 4 3 5 3 2 4 5 7 9 11 13 10 9 9 9 9 10 13 15 17 17 16 16 14 15 14 16 15 13 11 12
3 1 2 3 2 6 3 5 6 6 4 9 6 4 4 4 2 2 3 4 3 4 6 4 4 3 7 7 7 10 14 15 16 16 14 12 11 12 12 13 11 10 11 12
2 4 4 2 2 3 9 4 4 3 5 12 6 5 6 8 3 4 2 0 3 4 2 5 6 5 9 9 8 12 14 14 14 12 11 10 10 11 12 11 10 8 9 10
2 2 4 2 3 9 5 4 4 6 8 9 11 6 4 4 5 6 5 1 2 2 5 6 7 6 6 7 8 14 13 13 9 9 10 9 9 10 9 9 9 8 9 8
7 7 5 2 3 8 6 5 8 7 4 7 7 9 7 5 2 3 5 3 3 4 6 6 6 7 6 8 8 10 12 7 7 7 8 8 7 7 7 8 7 8 7 6
4 7 5 9 8 4 10 5 4 5 6 7 8 6 13 14 8 9 7 7 6 6 5 5 5 6 6 6 6 9 4 5 5 6 6 7 7 7 6 8 8 7 7 7
5 3 3 5 3 5 9 3 3 6 6 6 6 12 14 13 13 10 8 6 6 7 7 5 6 5 5 5 6 4 5 4 4 6 5 4 6 7 8 6 6 5 5 5
5 5 5 7 3 2 7 11 8 6 5 7 9 8 14 13 11 11 9 9 7 5 4 4 5 4 4 4 4 3 3 3 6 5 5 5 5 5 4 4 3 4 1 4
8 9 8 9 8 6 6 18 14 15 14 13 14 11 7 10 13 10 8 8 9 8 6 6 5 6 5 4 3 2 1 4 5 6 4 3 4 3 3 3 4 8 7 8
Wind_Direction
294 58 2 308 289 275 293 311 311 304 311 358 341 315 352 47 28 20 13 1 349 343 329 325 320 320 322 324 279 261 269 273 267 210 248 250 195 239 202 199 145 130 129 131
14 43 351 347 337 319 319 312 308 301 331 313 175 12 60 42 38 21 13 2 350 339 335 327 314 308 309 305 297 302 270 263 254 191 231 209 189 231 172 164 128 167 148 147
286 306 350 342 327 328 335 316 326 309 319 317 160 118 28 11 30 7 11 2 352 342 331 328 324 303 299 301 314 327 284 262 264 239 226 242 122 224 153 118 151 135 127 133
274 322 332 330 333 343 321 340 309 307 335 321 101 159 31 351 349 6 5 357 348 342 337 335 345 309 295 298 307 306 306 325 318 291 206 192 184 201 218 174 132 128 141 156
280 307 315 349 339 334 261 317 302 299 256 265 77 75 348 358 355 354 354 351 344 340 340 342 350 345 299 294 314 349 353 17 1 326 199 177 155 188 139 115 83 53 51 27
260 280 10 330 313 287 330 320 115 195 85 38 2 94 8 7 345 339 342 343 342 342 344 352 358 359 11 17 26 13 17 32 20 32 48 61 75 80 79 82 75 63 54 44
331 295 351 349 333 310 359 22 4 11 18 16 45 57 197 346 4 342 333 335 337 343 348 1 2 4 7 14 13 15 27 36 32 39 59 64 70 67 81 77 78 78 64 50
24 340 23 331 121 248 320 100 119 172 165 272 26 6 191 75 22 343 339 336 338 345 358 0 3 7 8 17 19 15 25 30 40 47 61 66 73 71 72 74 80 78 72 68
22 285 330 64 85 59 316 34 226 132 282 295 153 113 142 3 353 348 347 348 348 354 356 360 4 11 12 20 23 20 25 27 35 53 68 71 74 74 75 73 73 75 78 76
255 306 277 23 40 8 91 292 23 23 11 333 305 63 292 337 344 343 344 343 342 350 356 3 10 13 16 24 27 28 29 29 31 54 68 77 73 70 72 75 72 73 74 70
149 116 293 28 18 220 12 2 330 279 140 171 314 302 254 309 327 333 323 332 347 352 358 3 12 15 20 24 29 33 34 26 35 67 78 78 72 70 70 71 71 74 74 71
194 175 279 255 244 193 140 199 145 79 303 63 228 285 272 327 338 335 330 340 352 2 357 9 18 25 24 23 30 33 34 25 40 67 81 78 79 77 74 74 73 73 75 68
266 356 344 334 323 18 27 34 312 232 272 101 277 325 326 357 346 344 339 345 344 12 7 15 22 29 31 29 32 30 26 22 46 69 78 76 76 76 74 76 76 71 73 67
136 117 148 178 235 204 314 356 12 21 46 301 157 283 342 339 340 344 348 348 342 12 22 29 30 29 33 33 33 26 23 33 57 71 70 76 74 75 74 72 76 73 73 73
105 257 129 250 248 307 254 295 73 55 243 86 309 97 310 317 326 331 331 355 9 13 23 28 33 28 35 33 27 27 37 49 60 68 73 73 77 76 76 73 72 76 73 74
351 239 75 306 342 74 312 299 70 100 308 308 331 333 132 8 308 342 359 5 11 13 28 24 35 35 34 29 26 42 57 67 71 70 69 69 71 71 70 73 74 73 71 70
45 99 75 280 30 31 341 273 314 119 270 203 41 252 88 21 343 349 351 12 15 12 27 31 31 34 34 43 59 61 58 62 62 63 62 65 66 72 68 70 68 61 63 68
23 78 109 242 18 28 246 282 176 139 156 252 269 264 227 174 226 324 13 20 21 22 30 32 24 17 18 28 38 52 56 58 60 60 58 61 63 66 63 63 66 68 69 66
135 121 360 80 188 281 299 227 203 152 256 182 199 230 222 207 182 37 32 13 42 41 32 11 351 342 12 15 37 60 60 61 60 58 55 53 59 69 69 68 68 67 69 64
152 106 105 38 97 214 234 235 196 117 342 167 178 204 179 180 121 246 182 147 9 12 64 47 12 21 37 18 46 65 62 63 59 58 60 54 57 64 67 65 63 70 72 70
241 313 171 215 238 286 240 178 154 69 235 154 159 174 187 188 202 151 162 149 134 57 30 41 42 42 27 38 54 63 61 56 58 58 61 64 64 65 67 70 59 66 75 77
177 148 201 85 43 307 170 66 160 215 346 137 155 162 138 152 196 147 133 120 53 69 78 72 60 46 33 42 68 73 68 49 56 66 67 58 52 66 60 73 69 55 54 70
279 188 187 178 215 212 199 184 225 174 154 179 151 167 142 150 181 176 171 165 154 139 105 87 84 74 48 51 68 85 62 66 66 70 57 54 54 59 72 69 59 58 42 48
252 170 223 34 264 215 204 243 205 184 189 163 152 153 162 157 160 163 155 158 146 138 136 126 109 93 82 53 74 80 101 92 88 86 81 75 73 63 54 57 56 64 60 44
188 132 188 266 272 330 238 210 188 174 147 144 143 163 166 150 158 155 154 152 145 130 103 112 130 128 117 104 93 56 104 134 105 87 73 71 72 69 63 79 97 54 7 119
184 188 174 222 196 169 221 187 176 172 179 172 158 147 159 154 155 151 148 149 150 151 149 149 150 146 162 155 158 141 81 126 120 100 86 80 84 68 64 51 22 38 73 63